Wind_Speed
7 9 10 11 10 10 10 9 8 7 6 5 4 4 4 5 5 4 4 4 4 4 3 2 2 1 2 2 2 3 3 4 6 7 8 7 6 4 2 0 2 3 2 1 0 3 5 4 3 3 2 1 2 1 2 2 3 2 2 3 1 3 3 4 4 4 3 2 4 9 13 9 4 7 9 6 8 11 10 12 13 14 17 18 17 15 15 12
9 9 10 10 10 9 8 7 6 5 5 5 4 4 3 4 4 4 4 3 3 3 3 3 3 3 4 4 4 4 4 6 7 8 8 9 9 6 4 2 0 3 3 2 0 2 3 3 2 3 4 2 3 2 3 1 3 2 3 2 3 5 3 3 4 4 2 3 8 10 11 10 6 7 8 5 6 8 8 11 14 16 18 19 19 19 18 16
9 9 8 8 7 6 5 5 4 4 4 3 3 3 2 3 2 3 3 2 2 3 4 4 4 4 5 6 6 5 5 6 7 8 8 9 10 8 6 4 2 2 3 1 1 2 2 2 3 4 4 3 2 2 2 2 3 1 3 2 5 6 3 2 3 3 2 2 7 9 8 9 7 6 7 5 5 5 8 12 13 18 21 20 21 20 19 18
8 8 7 7 6 5 5 4 4 4 3 3 2 2 1 2 2 2 2 2 4 4 5 5 5 6 6 7 7 5 7 6 6 7 8 8 9 8 7 5 4 2 2 2 2 1 1 1 3 3 3 2 2 2 1 3 1 0 3 3 5 5 3 4 4 2 1 1 6 8 5 5 5 6 7 5 2 6 11 14 13 15 15 16 20 21 20 19
8 8 7 6 6 6 5 5 4 4 3 3 2 1 1 1 1 1 2 3 5 5 6 5 5 7 7 6 6 2 4 3 4 7 8 8 7 8 7 5 4 3 3 3 3 2 2 1 2 2 1 0 1 2 1 3 2 1 1 3 4 5 3 5 5 3 3 1 4 6 4 3 4 6 9 8 6 8 10 9 9 8 7 8 13 17 20 21
7 7 6 5 5 6 5 5 4 3 3 3 2 2 1 2 3 3 4 5 6 5 5 6 6 8 7 4 3 2 1 1 4 8 8 7 7 7 6 5 5 4 4 5 5 3 2 2 1 1 1 1 1 1 1 1 1 0 2 3 3 4 4 5 6 4 4 2 3 5 3 3 3 6 9 11 15 18 15 11 10 8 6 7 8 13 18 20
6 5 5 5 5 5 4 4 4 3 2 3 2 2 2 3 4 4 5 5 5 5 6 7 7 8 8 5 3 3 2 2 5 8 9 7 6 6 5 5 5 4 5 6 6 3 2 1 1 2 3 2 0 2 2 0 1 2 3 3 2 3 4 5 5 5 4 3 3 3 3 4 4 5 6 13 22 23 20 18 17 15 13 13 11 12 14 15
5 4 4 4 4 3 3 4 4 3 3 3 3 3 2 1 2 3 3 4 5 6 7 8 6 7 7 4 4 6 5 4 6 8 8 7 5 5 5 4 4 5 5 5 6 3 1 1 2 2 2 2 3 3 2 0 0 2 3 4 4 3 4 4 4 5 4 3 4 4 6 8 8 6 9 18 21 16 15 15 16 18 18 16 13 10 10 11
4 4 4 4 3 3 3 3 3 3 3 3 3 3 3 2 2 2 3 4 6 7 8 7 5 6 5 3 4 5 5 5 6 7 7 6 4 4 3 3 4 4 3 3 4 3 2 2 2 2 3 3 4 3 2 1 2 2 4 5 5 4 4 4 4 4 4 4 4 5 7 10 9 7 11 15 10 5 6 7 9 13 15 14 11 8 7 7
4 3 3 3 3 3 3 3 4 4 4 4 4 2 2 2 2 3 4 5 7 7 8 7 6 5 4 4 4 3 5 6 6 6 5 5 4 3 2 3 4 2 1 2 3 3 4 3 2 2 3 4 4 3 2 2 2 3 5 4 3 4 5 4 5 4 4 5 5 5 6 10 7 3 6 6 2 1 4 5 6 6 8 12 11 7 4 3
4 3 2 2 2 2 3 4 5 5 5 4 4 3 3 3 4 4 4 5 6 7 7 7 7 6 5 5 4 4 6 7 6 5 5 4 3 2 2 4 3 1 1 1 1 3 4 3 3 3 3 3 4 2 2 3 4 4 4 1 2 2 4 6 5 6 4 4 6 6 4 6 3 3 6 5 1 2 3 4 4 2 4 8 9 5 1 2
4 3 3 2 2 2 2 4 6 6 6 5 5 4 4 5 6 6 6 5 6 7 7 8 7 6 7 7 7 7 7 6 5 5 6 5 4 4 3 4 2 2 1 1 0 2 3 3 3 4 3 4 4 2 2 4 4 3 3 1 5 6 4 8 6 5 5 1 3 2 3 4 2 7 6 2 4 6 5 4 4 3 3 6 6 3 2 2
4 3 3 3 3 2 2 3 5 6 6 6 6 5 5 6 6 6 6 6 6 8 8 7 7 6 6 7 7 6 6 5 5 5 6 6 6 5 3 3 3 3 2 2 1 1 1 2 3 5 5 5 4 3 4 4 4 1 2 1 3 7 5 6 4 4 4 2 3 1 3 5 6 12 9 3 7 9 6 5 4 4 4 5 5 4 6 5
4 2 2 3 3 2 2 3 5 6 6 7 7 7 6 6 6 5 5 6 7 9 8 7 6 6 6 6 5 6 6 5 5 5 6 6 5 4 3 2 2 2 2 2 1 1 2 1 1 4 5 4 5 6 3 3 3 1 1 2 2 1 5 5 2 5 4 2 2 3 1 6 8 11 7 4 8 8 6 5 4 5 6 7 8 7 8 8
4 3 2 2 3 3 4 5 7 7 7 7 8 7 6 6 5 5 5 6 8 9 8 7 7 7 6 5 6 6 6 5 4 5 6 7 6 4 4 3 1 0 1 1 1 1 3 2 2 3 5 6 6 5 3 4 3 2 1 3 2 2 5 8 2 6 4 2 1 4 2 7 8 6 5 7 8 5 7 6 6 7 9 12 11 9 9 10
5 5 3 3 4 5 6 7 7 8 8 7 8 8 7 6 5 5 5 6 9 10 8 7 8 8 5 4 6 5 6 6 5 5 5 6 7 7 6 5 3 3 3 2 1 1 2 1 1 2 4 4 4 4 4 3 4 4 1 3 3 3 3 6 3 3 3 2 1 1 2 5 4 4 10 12 9 6 12 11 12 13 14 14 12 12 13 14
6 6 4 4 5 7 7 7 8 8 8 9 9 8 8 7 6 5 5 7 10 9 6 6 7 8 5 5 5 5 7 7 6 5 5 6 7 8 8 6 5 5 4 3 3 2 2 1 1 1 2 3 3 4 3 2 4 4 1 2 4 3 2 3 4 2 2 2 3 1 2 7 6 8 14 12 4 13 17 16 18 20 21 21 21 22 22 21
6 6 5 5 7 8 8 7 8 9 9 9 8 8 8 7 7 5 4 8 8 5 3 4 4 4 4 4 5 7 9 8 8 6 5 6 6 8 8 6 5 5 4 3 3 2 2 1 1 1 3 4 3 5 2 4 4 3 3 3 4 3 3 4 4 2 3 2 3 1 2 10 8 8 11 6 9 19 21 23 26 28 29 30 30 30 27 26
5 5 6 7 8 8 7 6 8 9 9 9 9 8 6 7 6 4 3 8 5 1 1 3 3 2 4 6 7 8 10 10 8 6 6 6 7 8 6 5 5 4 3 1 1 1 1 1 2 1 2 2 2 5 6 7 6 5 5 5 4 4 4 5 5 5 3 3 4 5 5 9 6 6 6 8 14 23 26 27 29 28 30 31 31 30 28 26
4 4 6 8 9 8 6 6 8 9 9 9 9 7 4 7 5 3 6 8 2 2 3 4 4 3 5 8 8 8 9 8 6 5 6 6 8 7 3 3 4 3 1 1 1 0 2 1 1 4 5 6 5 6 5 3 5 3 2 3 4 4 5 6 4 4 2 2 5 5 5 8 5 6 5 5 15 21 25 25 25 26 28 30 30 29 27 26
3 4 5 8 9 8 7 7 8 10 11 10 10 8 5 7 3 3 9 6 2 5 5 4 4 3 4 7 8 10 10 7 5 5 6 8 9 5 2 4 3 2 2 1 1 1 2 0 4 7 7 6 3 4 4 2 3 3 2 3 4 3 6 6 3 4 1 1 4 1 2 7 5 7 6 7 13 13 18 22 23 25 27 28 29 28 26 24
3 3 5 8 8 8 8 9 10 11 11 11 12 10 8 7 5 5 8 4 6 7 4 5 4 4 5 6 8 10 9 6 4 5 6 8 8 4 4 4 2 2 3 2 1 3 3 3 6 5 4 3 3 4 5 2 2 3 2 1 3 3 4 5 3 4 2 2 3 3 4 6 6 7 6 10 13 12 17 23 24 26 27 27 28 26 24 22
3 3 5 7 7 7 7 10 11 11 12 13 14 12 9 8 7 8 7 4 6 5 3 5 4 5 6 5 7 10 8 4 4 7 10 9 6 5 4 3 1 2 3 2 2 1 2 4 4 2 2 3 3 5 6 3 2 1 2 1 4 4 2 3 4 5 3 2 3 3 4 5 6 6 9 12 15 16 20 24 25 27 28 27 27 25 23 21
3 3 4 6 6 6 6 9 12 12 13 14 15 12 10 9 8 8 7 3 3 3 4 5 4 5 5 5 8 9 7 5 5 8 10 9 6 5 3 1 2 1 2 1 5 4 4 3 1 3 4 4 0 2 4 2 3 3 4 4 4 4 3 5 4 4 4 3 1 2 4 3 4 5 6 8 13 16 18 23 24 26 28 28 27 25 22 19
3 4 4 5 6 6 6 8 12 14 14 14 15 13 11 9 8 8 6 2 2 4 4 4 4 4 6 7 9 10 7 4 5 7 8 9 7 5 2 0 1 1 4 2 2 3 5 3 1 2 4 5 2 1 1 4 1 4 4 6 6 4 3 3 5 5 4 4 2 3 3 3 3 4 4 3 7 9 12 18 20 22 26 26 26 25 22 19
3 3 4 5 7 7 6 8 13 14 13 14 15 14 11 8 8 7 4 3 2 4 3 4 4 3 6 9 11 11 5 3 5 5 7 10 8 4 2 1 1 1 3 2 0 2 2 2 2 3 4 5 4 2 3 5 3 3 4 5 6 4 1 3 4 3 1 2 2 2 3 3 3 2 5 2 5 5 6 10 14 19 23 24 25 23 23 22
3 4 5 6 7 9 9 9 13 14 13 13 14 14 10 8 7 6 3 4 2 3 2 3 3 2 7 12 12 6 1 6 6 3 8 11 7 3 2 2 1 1 2 1 2 1 1 4 5 5 5 4 2 2 3 5 5 3 3 4 4 1 2 1 1 0 3 3 4 2 4 3 3 4 5 4 6 5 4 6 10 17 21 23 23 23 23 24
3 4 5 7 8 10 11 11 13 14 14 14 14 13 9 7 7 3 3 4 2 3 1 3 3 2 10 14 8 3 2 6 3 3 11 10 5 4 1 2 2 3 3 2 2 4 0 1 0 3 3 1 2 3 4 5 2 4 3 4 1 1 1 2 3 2 2 2 5 4 2 3 4 2 3 4 5 6 6 5 7 13 19 21 21 22 22 23
4 5 7 8 9 10 11 11 13 14 14 14 14 13 10 7 6 1 4 2 2 2 1 3 3 4 13 12 3 5 5 3 3 6 10 6 4 5 1 2 2 3 2 2 4 4 1 0 2 4 2 2 5 5 4 4 2 3 4 3 2 3 2 2 3 2 2 2 3 5 2 2 3 2 4 4 4 6 6 5 6 11 17 19 20 21 21 22
5 6 8 9 10 11 11 12 14 14 14 14 13 13 10 5 2 4 3 1 0 2 2 3 3 5 13 10 3 7 6 2 6 8 7 4 4 6 1 3 1 4 1 3 1 3 1 1 0 2 1 3 3 3 2 3 2 1 3 2 4 4 3 3 2 3 3 2 5 6 3 3 1 4 7 5 5 8 7 5 6 10 15 18 19 20 20 21
6 7 8 10 11 12 12 13 14 14 14 13 12 12 7 2 3 5 2 1 0 3 4 3 3 4 8 5 2 7 6 4 8 8 6 4 5 9 6 1 3 4 3 5 3 4 4 2 0 1 2 1 1 1 1 1 1 3 3 3 3 4 3 4 4 4 3 3 6 5 3 4 1 4 5 3 3 7 8 7 7 9 13 17 18 19 19 19
7 8 9 10 12 12 13 13 14 14 14 13 12 10 3 1 3 2 1 3 1 2 3 2 3 4 5 3 2 5 4 4 6 6 3 3 4 6 5 2 2 4 4 3 4 5 3 1 3 3 1 1 2 1 3 4 4 4 3 4 3 4 4 3 4 1 2 4 4 0 2 2 3 4 2 1 4 6 8 11 13 13 14 16 18 18 17 18
8 9 10 11 11 11 12 13 13 13 13 13 11 6 4 4 1 1 2 3 2 2 2 2 3 4 3 4 3 4 2 2 5 4 1 2 4 3 3 2 2 2 2 2 2 5 4 4 4 2 1 1 2 1 3 3 3 4 1 2 2 2 3 3 4 2 3 4 3 1 2 2 2 2 3 3 6 9 13 17 18 17 16 16 17 16 16 18
9 9 10 10 10 11 11 12 12 12 12 11 8 4 5 3 1 1 3 3 2 4 2 1 4 5 3 2 2 4 2 2 4 5 3 3 4 3 4 6 5 3 1 1 1 2 1 4 3 1 1 2 2 1 1 1 1 3 2 4 2 2 1 3 3 2 4 4 4 3 1 2 1 3 3 5 10 14 18 18 18 18 16 15 15 15 16 18
9 9 9 8 8 9 10 11 11 11 11 8 4 5 4 1 2 1 2 4 2 4 4 2 2 3 4 2 3 3 2 2 4 5 4 3 2 1 2 4 5 3 3 2 2 0 1 4 4 1 1 0 1 1 2 3 2 2 2 3 0 3 3 2 3 4 2 3 4 2 1 1 2 3 3 7 12 14 15 16 17 16 14 14 14 15 17 19
8 7 6 6 7 8 10 11 10 10 9 5 5 5 1 2 1 1 2 2 1 2 5 5 4 4 4 4 4 4 2 1 3 4 3 2 1 0 1 2 3 2 3 2 1 1 1 4 4 3 2 1 2 1 1 2 1 0 1 1 3 3 4 1 3 2 2 2 3 1 1 1 3 3 2 5 8 8 10 13 15 15 14 14 14 15 19 21
7 5 3 6 9 10 11 11 9 7 6 4 6 2 2 2 1 2 1 3 2 1 3 4 2 2 2 3 4 5 4 2 2 3 2 1 0 0 1 2 1 1 2 1 1 1 0 4 5 2 1 1 1 1 2 1 1 1 1 4 2 1 4 3 1 4 4 1 4 1 2 3 2 2 1 4 6 5 5 7 11 13 15 15 14 15 20 21
6 3 3 8 11 11 10 9 8 5 4 6 4 1 1 1 1 2 2 2 2 1 4 1 2 1 1 1 3 5 5 3 3 3 2 2 1 1 1 1 0 1 3 2 0 1 1 3 6 2 1 3 2 1 3 3 1 2 3 2 1 1 1 1 0 1 2 2 4 4 2 3 3 3 4 4 4 4 4 5 7 11 14 14 14 18 21 18
5 2 4 10 12 10 9 8 7 5 5 5 2 1 0 1 1 2 3 2 0 1 2 1 2 2 1 0 2 4 3 2 3 3 1 1 2 1 2 1 1 2 5 2 1 1 1 0 5 3 2 3 3 2 1 4 3 2 1 3 1 2 3 1 1 2 1 2 3 4 4 2 2 2 4 5 4 4 4 5 5 9 14 14 15 20 19 14
5 1 4 11 11 9 8 6 7 7 5 3 2 1 1 1 2 2 2 2 1 1 0 1 1 2 2 1 1 2 2 1 1 1 1 1 1 1 2 2 1 4 6 3 2 1 1 1 4 5 3 3 2 1 3 3 1 1 2 2 2 1 1 0 1 1 2 2 2 3 5 3 2 2 4 7 4 4 5 5 6 11 14 14 16 17 13 12
4 1 4 11 11 8 6 7 8 6 4 2 1 0 2 1 2 3 3 2 1 1 1 2 1 1 1 1 2 1 2 2 1 1 1 1 2 1 1 2 1 3 5 4 2 2 1 1 2 4 4 3 4 4 4 5 4 3 2 2 3 1 1 1 4 2 1 2 3 1 5 4 1 2 4 6 5 5 8 9 9 12 13 14 15 12 10 14
5 2 5 11 11 7 5 6 6 4 4 2 1 1 2 1 2 3 3 2 1 1 0 1 1 1 1 1 2 1 1 2 1 1 1 1 0 1 1 2 2 1 1 1 1 1 1 2 0 4 5 5 7 4 3 4 4 4 2 1 3 2 2 2 4 4 1 1 2 1 3 3 1 1 3 6 8 9 10 9 9 11 12 14 13 9 11 15
6 4 6 11 10 6 6 4 4 4 3 1 1 0 1 1 1 1 2 2 1 1 2 1 0 1 0 1 0 1 1 1 1 1 1 2 2 1 1 2 2 0 1 0 1 2 1 2 1 4 5 4 6 4 2 1 2 2 1 1 1 1 1 4 4 2 1 3 1 1 3 4 2 2 5 7 9 11 9 8 9 10 13 14 11 10 12 14
5 5 8 12 11 7 5 3 2 2 2 1 1 2 1 1 1 1 1 2 2 1 1 1 0 1 1 0 1 1 2 1 1 1 0 2 2 1 0 0 0 1 1 1 1 2 2 1 1 3 5 6 6 6 5 4 2 1 2 1 1 1 4 3 1 3 0 4 3 2 5 4 3 4 7 7 7 8 6 7 9 10 13 13 10 10 12 13
3 4 6 11 14 11 8 3 3 3 0 1 2 2 2 2 2 1 1 2 2 1 1 2 2 1 2 1 1 2 1 1 2 2 2 2 2 1 1 0 0 1 1 1 1 1 1 1 1 1 2 3 4 4 4 3 3 2 1 2 1 1 3 1 1 2 1 3 2 3 5 2 2 2 4 4 3 5 5 6 8 10 13 13 12 13 14 16
2 2 3 7 13 16 13 7 4 3 2 2 2 2 2 2 2 2 2 2 3 3 1 1 2 1 2 3 2 3 3 2 2 2 1 3 3 1 0 1 1 1 1 2 1 1 1 1 2 4 6 5 5 6 4 0 3 5 5 6 5 1 2 3 2 0 3 1 2 5 4 1 3 2 3 3 1 3 6 8 11 14 17 18 16 15 15 16
3 2 2 3 6 10 11 10 8 4 2 2 2 1 2 2 3 2 2 1 2 3 1 0 2 1 1 2 2 2 4 2 1 2 2 3 4 2 1 1 2 2 1 2 1 2 3 2 3 4 7 7 6 8 7 2 4 6 6 7 6 1 2 5 3 4 3 2 5 5 2 3 4 2 3 4 2 4 7 10 13 16 20 19 16 13 14 16
4 2 2 3 2 2 4 7 8 6 4 3 1 1 2 3 3 2 1 1 2 2 2 1 3 2 1 2 0 1 4 4 2 2 1 2 3 4 3 1 2 2 2 2 1 3 4 2 4 2 6 8 7 9 8 3 4 3 2 6 6 2 3 4 4 4 3 1 7 4 3 6 4 1 3 5 4 6 10 12 14 18 20 19 16 15 17 20
6 5 4 4 2 2 2 4 4 5 6 4 2 2 2 2 3 1 2 1 2 2 3 1 3 4 3 3 2 1 3 2 3 4 1 1 3 2 3 2 1 2 2 2 2 2 3 3 3 1 6 9 7 8 4 3 2 2 4 5 4 1 4 3 3 2 2 5 7 5 8 8 3 1 3 6 7 10 14 16 18 22 24 21 18 18 21 24
5 4 3 5 5 4 3 3 2 3 4 4 2 1 1 1 1 3 1 1 2 3 2 1 5 6 4 3 3 4 5 4 4 5 2 0 2 1 1 1 0 3 4 2 1 1 1 2 1 2 3 8 7 5 3 1 1 2 3 5 6 4 2 2 1 1 1 5 6 7 9 7 1 1 7 9 11 15 17 18 21 25 23 19 18 19 21 24
6 5 4 6 4 4 4 2 2 3 2 3 2 1 1 0 1 3 1 1 1 1 1 2 4 4 3 1 3 6 6 4 6 7 4 3 3 3 2 2 0 3 4 1 1 1 1 2 3 5 3 6 4 5 8 6 2 4 3 6 6 4 3 1 2 0 1 5 7 8 7 5 2 6 10 10 12 16 16 17 23 24 18 15 17 20 23 26
6 6 5 4 2 4 4 3 3 4 1 1 1 1 1 1 2 1 0 1 1 1 2 2 2 2 3 3 4 5 6 6 7 9 7 6 7 6 6 6 3 2 1 1 0 1 2 1 1 3 2 6 4 6 9 7 4 2 3 3 2 0 1 2 3 3 3 3 4 6 4 3 4 7 9 8 10 13 14 19 24 21 16 16 17 22 27 28
Wind_Direction
95 96 97 97 98 98 97 93 89 83 77 72 73 95 104 93 85 89 95 88 86 75 66 63 50 9 322 281 257 279 302 340 347 347 352 360 2 7 21 30 202 204 208 242 126 115 129 135 135 95 46 160 176 199 147 50 28 64 116 100 244 195 186 198 191 196 181 220 211 199 193 181 201 209 209 226 228 233 234 228 225 225 224 233 246 254 265 267
92 96 99 102 104 103 100 96 92 87 82 75 70 87 93 82 79 84 86 77 71 51 25 8 7 334 302 291 281 272 285 310 323 328 337 350 350 352 6 12 260 228 228 239 16 69 111 122 103 61 43 118 165 174 162 26 43 91 107 98 234 202 197 212 198 203 176 222 204 198 202 196 210 211 206 227 236 234 241 240 230 229 232 235 242 248 256 259
92 96 98 102 104 102 98 91 85 81 78 77 74 79 68 55 67 73 65 50 30 6 352 351 2 344 314 309 303 269 262 285 298 317 329 338 341 345 351 352 356 287 239 220 90 65 100 84 26 26 41 101 144 159 154 33 42 109 96 113 241 212 193 202 193 199 181 239 197 196 213 209 226 222 202 215 251 263 243 244 235 234 242 241 242 244 248 251
95 99 101 100 98 92 85 77 70 64 57 57 64 61 37 30 44 49 24 9 357 345 339 341 357 352 328 322 323 263 245 275 285 309 328 331 331 337 340 337 340 311 237 187 143 113 184 7 342 338 21 88 99 124 121 26 20 154 119 176 224 186 182 208 193 215 211 233 200 198 200 210 239 229 212 199 250 282 253 253 252 248 258 254 246 244 243 244
97 99 101 99 99 89 77 70 60 55 50 43 41 22 357 2 350 331 335 338 335 332 329 330 345 349 339 331 343 275 238 290 305 318 331 329 327 329 329 318 311 291 234 187 177 208 240 297 317 295 330 120 60 82 61 35 76 72 145 195 183 162 192 213 197 230 229 171 189 181 162 210 244 232 227 208 206 257 260 272 275 261 271 265 253 245 238 236
101 97 96 97 95 82 66 62 58 59 49 33 18 335 283 261 267 278 296 309 318 320 319 323 328 334 334 318 340 354 226 264 326 333 334 327 325 319 311 300 294 278 233 194 191 210 253 308 338 242 147 99 25 125 128 46 112 90 253 207 168 182 196 194 198 229 226 183 164 169 200 234 251 264 254 231 234 258 269 276 281 278 276 272 264 244 235 234
110 101 97 100 94 76 59 58 59 59 38 25 17 347 284 262 262 269 284 299 315 321 318 319 318 323 324 289 270 315 279 264 328 340 338 327 319 303 290 288 288 273 240 217 216 226 297 301 127 132 113 84 185 162 120 30 152 131 216 215 172 199 198 191 207 225 225 226 216 207 249 255 249 271 285 260 259 270 275 272 272 272 272 273 269 252 242 241
120 117 109 108 97 69 58 60 52 44 23 12 20 28 44 349 282 284 298 311 320 325 323 320 318 324 324 280 255 293 288 285 320 333 335 327 311 289 279 277 278 271 249 237 236 228 278 227 151 157 129 126 174 162 115 50 4 118 194 210 172 194 205 202 224 231 238 245 245 252 260 262 263 276 285 275 277 283 275 267 262 262 265 266 263 253 239 238
110 120 118 110 88 53 50 44 25 22 19 10 14 32 52 54 32 354 340 332 327 327 325 322 321 321 323 285 263 290 289 285 308 321 328 326 312 287 273 266 265 264 253 258 245 214 239 210 158 189 190 170 154 141 132 154 256 181 170 186 182 208 207 209 236 235 246 249 236 247 264 270 278 296 282 276 292 297 250 239 241 249 255 254 251 242 226 234
94 105 107 100 67 38 25 12 2 359 6 9 3 356 1 11 9 354 343 339 333 329 326 322 317 309 303 294 277 286 296 291 298 309 315 324 321 295 268 256 257 255 276 306 262 229 232 220 195 176 169 163 142 134 150 152 191 162 148 159 182 217 212 220 243 243 251 256 239 225 258 274 278 291 264 269 6 105 207 202 215 232 246 250 248 234 222 254
73 75 74 70 37 20 9 1 354 348 349 353 350 338 318 309 311 319 324 332 333 330 326 318 309 289 280 295 278 266 293 292 288 291 293 308 319 300 258 241 238 190 34 354 273 242 229 219 208 195 185 176 151 139 190 162 149 142 138 140 336 282 243 236 237 243 236 256 256 230 261 291 275 215 243 266 307 232 218 200 192 196 238 243 241 228 232 332
51 44 37 25 6 355 355 359 354 348 345 343 341 335 328 316 303 297 295 306 325 332 326 317 308 278 268 287 281 277 296 294 284 282 277 286 290 275 246 223 196 111 38 19 279 258 235 230 231 226 208 171 158 118 164 152 129 118 110 293 320 358 304 240 221 222 202 208 279 263 331 325 216 218 242 293 277 251 232 205 181 185 223 216 209 178 80 43
37 30 21 5 354 332 321 352 353 348 345 342 338 332 334 333 322 300 282 281 305 323 320 310 302 281 274 284 281 283 301 302 287 283 281 286 281 266 252 226 182 131 96 76 35 301 245 247 241 219 188 159 158 134 140 127 103 101 82 87 322 2 327 247 189 166 179 213 270 1 330 284 245 245 257 296 280 262 229 207 190 202 212 186 164 112 84 76
31 22 6 354 350 324 292 319 339 343 340 338 337 332 328 333 334 316 292 281 295 311 309 295 284 280 279 274 275 285 303 315 296 286 288 286 279 262 244 225 181 130 121 108 66 307 284 273 217 192 157 130 143 137 103 44 65 90 49 42 18 353 289 286 169 151 154 226 239 91 217 260 265 270 287 318 290 264 215 201 197 210 200 161 128 107 99 97
27 9 347 341 338 323 301 304 317 329 332 334 336 332 324 323 329 324 307 294 304 307 295 279 271 274 275 269 277 287 307 321 312 306 299 287 285 281 265 249 246 149 155 155 159 274 286 240 188 155 120 109 119 113 26 359 16 34 52 314 340 179 262 305 261 173 172 213 142 105 208 270 266 279 355 6 315 251 173 147 145 161 158 143 125 122 121 109
13 3 343 320 322 324 317 310 313 320 321 325 329 326 321 314 311 319 315 311 317 309 285 265 265 270 274 284 286 294 313 320 325 329 316 305 301 294 289 283 271 243 224 236 215 208 268 240 145 101 114 116 107 89 37 17 344 355 104 253 256 183 263 314 305 210 177 165 293 171 223 275 272 326 353 340 305 188 141 117 123 129 129 131 125 121 117 110
1 358 347 328 325 327 329 330 330 328 321 320 322 323 320 314 311 316 321 320 321 313 281 246 265 278 272 284 293 303 316 321 328 330 324 322 315 306 299 290 276 262 255 256 254 233 259 267 126 112 81 74 86 87 47 346 306 322 1 260 244 205 226 288 306 304 110 126 264 231 213 254 276 344 347 332 253 151 121 105 111 113 112 113 111 110 108 106
356 360 2 350 338 335 338 343 344 346 344 336 332 329 321 318 314 301 317 328 324 320 278 242 277 284 265 299 319 317 319 316 314 313 310 317 321 320 312 300 282 277 290 279 250 221 241 311 82 24 9 23 64 100 131 229 222 239 238 236 268 277 238 244 275 260 114 99 243 186 245 259 280 341 359 17 140 127 106 104 108 108 108 107 105 105 102 99
353 6 14 6 354 349 349 353 1 6 5 359 350 340 326 329 318 253 315 339 335 354 273 279 304 246 261 314 324 318 320 313 301 299 304 321 336 326 318 320 303 289 322 336 258 167 164 28 61 52 308 263 200 152 182 210 187 205 215 187 222 262 260 245 254 247 170 119 236 219 232 260 295 343 11 71 112 111 104 108 109 107 106 105 104 103 101 99
4 23 28 20 13 12 19 21 17 14 12 14 6 1 350 347 339 232 328 346 32 26 295 281 300 271 285 317 319 319 325 315 296 300 314 333 343 333 323 338 331 319 322 193 218 188 95 29 245 228 229 227 221 189 186 185 150 146 162 177 229 237 270 271 270 279 181 147 258 224 226 268 302 313 286 109 102 105 110 110 108 109 106 105 106 104 104 102
28 46 38 25 23 30 41 32 18 14 14 16 16 24 25 6 12 303 329 341 356 335 298 282 304 287 304 324 327 332 333 321 300 308 323 330 337 334 308 344 7 333 304 174 182 15 79 331 243 233 222 207 204 167 138 124 109 75 149 215 281 238 256 264 244 298 330 148 273 286 328 300 327 319 283 127 106 104 114 114 112 112 108 107 106 102 102 101
50 49 31 19 23 32 37 27 21 20 16 15 18 23 24 16 11 335 332 309 307 318 288 297 311 298 317 329 336 339 334 326 315 323 329 326 333 331 314 357 73 253 314 57 35 355 21 248 244 241 213 163 61 70 84 85 99 74 127 182 294 260 274 286 281 317 354 146 273 341 0 320 337 354 19 90 108 111 113 115 115 113 109 105 101 99 99 99
57 39 22 17 25 31 31 27 24 24 19 18 17 14 10 4 355 345 337 296 304 329 313 310 313 317 330 337 340 340 340 340 329 334 337 330 334 336 327 2 79 264 337 42 181 258 313 256 249 251 143 119 24 39 69 57 46 140 164 169 262 280 325 282 298 321 303 227 254 333 9 324 333 23 40 66 100 109 110 111 110 109 106 101 97 96 95 93
51 35 29 27 34 35 31 26 20 19 16 15 12 5 0 354 345 343 338 298 298 345 343 326 327 335 343 345 341 342 340 329 322 334 346 350 350 337 314 354 19 308 279 164 157 194 244 257 304 38 72 103 122 18 77 99 324 284 200 189 235 269 242 226 283 319 313 324 289 28 31 344 353 54 58 62 92 100 106 108 105 105 103 100 95 91 89 90
40 34 38 38 35 27 20 16 13 12 8 6 3 357 355 348 339 339 346 359 314 330 346 343 344 359 3 352 339 333 321 315 336 345 359 6 358 339 306 247 22 290 259 233 133 244 263 283 332 58 58 73 114 283 202 167 263 312 237 199 198 207 230 271 332 349 2 349 310 44 38 307 332 85 119 88 87 90 101 107 105 104 103 98 91 83 79 80
36 29 33 31 25 15 7 6 6 4 1 358 354 352 350 340 336 335 353 59 354 321 343 350 351 1 4 351 336 331 321 323 339 343 1 357 345 344 320 299 62 247 260 254 355 268 268 356 36 105 92 73 79 272 242 156 123 307 253 181 162 155 356 342 360 10 8 257 273 69 118 252 298 179 182 152 102 92 95 106 107 106 101 95 86 77 68 64
24 13 15 13 8 5 4 2 358 358 358 353 348 348 343 334 334 322 356 47 359 320 332 334 345 344 349 345 340 347 316 322 330 337 358 354 347 4 305 296 28 258 274 53 3 280 178 29 37 74 81 81 68 268 214 134 121 255 240 132 121 81 330 312 98 168 233 255 315 359 140 185 256 221 192 142 112 104 105 107 107 107 102 94 83 71 61 54
8 357 357 356 353 355 360 359 354 355 355 347 344 344 339 330 321 309 69 69 328 334 336 318 336 338 343 342 347 44 329 324 354 335 345 355 1 12 306 221 179 241 308 92 234 274 129 44 89 123 75 35 245 231 181 139 136 256 211 138 123 287 229 179 148 205 259 7 322 294 137 163 255 241 156 138 129 140 156 144 122 114 106 94 79 66 55 48
350 345 344 346 347 347 352 354 352 352 349 344 343 340 336 325 311 356 82 98 299 357 353 334 339 330 345 348 7 31 357 345 20 328 336 358 358 2 324 233 169 191 334 94 198 253 72 158 216 152 130 250 240 241 191 157 247 256 159 130 32 51 80 109 120 128 40 28 270 264 193 167 263 228 167 176 171 172 178 162 133 121 107 90 74 60 47 41
340 341 342 342 341 338 344 348 347 346 343 343 341 335 334 329 345 63 42 321 238 339 303 334 326 326 353 1 1 4 5 349 355 343 347 22 18 13 32 230 113 128 4 24 182 250 352 77 138 109 175 226 220 261 209 165 245 42 90 32 16 37 42 42 74 91 57 323 254 254 222 151 298 225 184 200 202 174 162 147 133 120 106 88 70 55 43 38
332 335 338 338 334 331 337 342 341 340 338 340 338 333 332 340 71 84 42 292 120 337 341 350 329 352 14 24 325 344 356 338 355 10 6 20 25 13 27 69 21 45 15 5 347 313 6 42 323 337 296 243 90 326 335 31 30 72 66 31 9 349 14 25 357 43 82 266 260 252 204 150 211 243 213 225 194 153 147 144 141 128 108 89 68 53 43 39
327 328 330 328 325 327 334 336 337 338 336 339 338 331 341 35 28 86 267 319 344 337 354 319 326 1 5 7 326 324 341 335 356 33 32 32 46 17 29 62 357 10 2 339 328 336 0 305 290 319 319 53 72 350 337 2 36 47 37 47 31 340 0 1 317 336 185 247 259 221 104 169 226 255 248 164 126 131 137 135 133 129 112 87 64 51 46 42
326 327 326 322 321 328 334 335 337 339 336 337 335 336 67 78 7 255 288 326 359 336 333 282 324 352 347 3 349 320 336 332 349 20 40 61 65 40 11 24 52 30 333 283 335 351 339 300 315 347 311 9 74 57 333 333 15 4 351 93 79 18 3 305 279 296 280 265 266 321 17 285 270 351 16 81 102 117 125 125 120 113 100 77 58 53 53 46
324 326 323 320 325 333 338 339 340 340 336 336 339 16 63 58 262 335 323 281 296 338 348 339 330 344 18 41 330 331 8 332 348 13 2 33 50 15 341 351 16 48 37 17 358 18 9 301 302 130 297 356 48 125 173 176 336 304 196 133 128 157 167 256 241 248 278 285 294 303 307 246 270 21 20 75 89 104 117 117 106 94 81 63 56 60 55 41
324 325 321 323 336 339 344 345 340 342 337 335 15 65 77 265 266 347 299 266 305 330 316 337 14 17 7 335 314 12 59 309 339 22 21 41 64 9 342 328 341 32 73 32 314 129 101 267 266 282 280 48 60 232 124 81 5 278 152 97 331 192 158 211 215 206 253 323 311 276 224 224 98 52 28 75 86 93 103 100 85 74 63 54 58 60 46 29
326 326 328 343 356 352 352 348 343 345 342 355 57 65 144 218 251 176 226 291 338 313 317 346 38 43 347 320 329 7 57 285 326 15 26 50 124 299 322 270 305 16 69 92 284 346 26 277 287 350 327 101 90 293 36 49 319 311 77 258 241 186 127 110 271 308 35 359 287 234 142 78 97 98 25 63 75 70 76 80 70 60 52 52 58 50 30 19
328 334 5 16 7 359 355 353 353 353 353 40 81 93 219 221 209 189 258 324 282 281 25 7 358 24 340 316 316 331 354 343 330 14 11 333 79 67 318 283 270 13 43 117 256 296 154 275 300 4 335 341 62 320 342 35 140 112 224 246 248 98 86 95 285 342 13 277 274 289 171 185 155 164 182 92 83 61 52 63 58 48 44 47 50 35 17 12
339 1 39 16 4 1 359 1 3 5 26 58 80 134 202 213 239 249 313 335 270 357 64 54 299 31 66 310 293 305 337 354 340 7 8 316 355 116 78 331 295 35 19 44 270 300 107 286 302 325 251 304 351 13 340 341 28 142 211 245 55 66 327 20 90 310 336 293 288 309 278 211 195 193 179 144 110 83 48 40 41 36 37 42 37 19 8 7
358 38 30 8 4 8 10 11 11 22 57 65 73 191 196 277 306 329 335 350 90 75 70 202 287 8 42 138 268 298 334 3 328 351 37 2 344 71 88 29 292 359 3 29 159 286 51 208 287 287 246 300 356 35 328 313 332 33 347 334 39 162 199 212 173 187 240 286 286 314 322 272 245 241 162 136 106 89 57 29 32 33 33 34 22 8 2 3
4 61 22 7 9 12 14 29 38 49 70 82 155 189 342 321 326 355 4 359 50 90 47 221 216 338 330 347 297 304 345 350 301 331 342 342 339 355 60 56 314 326 341 11 104 318 7 141 261 289 321 334 331 277 205 209 270 42 25 335 313 286 265 270 275 151 144 234 245 305 302 266 295 326 124 115 102 95 69 40 30 30 28 20 6 360 357 359
16 63 12 8 11 13 29 49 44 56 88 88 111 81 357 350 336 353 15 13 25 82 183 184 164 212 285 331 312 298 330 324 316 317 292 336 20 351 21 55 345 323 345 18 50 359 351 155 240 291 325 311 260 248 188 169 168 155 167 211 203 214 16 316 293 308 78 183 187 234 288 268 318 26 111 117 115 90 66 54 35 23 18 4 354 351 349 353
44 66 10 9 8 12 57 64 31 47 94 76 49 32 354 348 342 354 12 13 4 353 8 140 140 166 179 259 293 294 321 303 280 338 303 278 355 240 282 2 351 311 17 18 330 337 77 103 112 276 272 261 269 276 149 161 164 149 169 187 153 140 124 187 259 276 318 290 181 154 279 268 288 44 112 117 99 69 53 50 38 19 3 351 346 339 341 351
57 65 26 20 14 26 71 59 4 16 57 84 133 90 8 353 338 344 359 11 4 328 359 37 56 39 213 240 347 329 316 279 236 295 296 260 261 232 254 345 359 90 72 329 302 3 40 90 39 285 285 301 311 337 78 103 105 122 284 10 116 290 145 165 207 201 203 273 264 228 269 252 221 88 94 99 81 63 49 37 26 5 351 347 339 332 342 355
70 66 40 29 23 40 84 81 21 9 336 346 60 28 4 2 15 2 326 353 359 2 39 35 355 17 343 11 90 263 282 340 296 309 287 243 244 228 228 48 99 127 103 183 277 11 337 237 67 331 329 341 345 355 354 343 21 118 282 19 101 73 87 123 186 77 49 254 200 198 263 253 181 105 78 73 56 44 32 17 6 348 344 343 334 334 343 350
85 67 43 35 35 53 82 105 125 126 67 35 41 7 348 356 16 22 319 334 359 21 49 354 332 341 336 358 6 305 292 208 253 320 359 279 260 207 157 26 323 142 118 232 286 1 279 218 124 62 309 306 309 307 300 299 313 306 312 339 297 148 120 200 247 64 284 260 163 191 243 265 188 139 64 60 38 8 349 346 344 338 343 342 336 339 342 345
87 49 19 26 38 55 70 72 79 112 130 92 55 11 12 356 328 347 346 353 6 4 355 321 318 326 5 24 6 319 303 231 240 317 333 270 272 267 154 349 7 50 15 1 5 58 85 264 223 184 204 232 247 256 257 270 298 293 300 303 298 270 129 123 96 161 210 210 302 229 214 296 239 232 2 355 333 341 332 335 339 339 342 340 336 338 340 342
75 44 4 11 28 46 58 50 45 69 118 115 94 13 351 327 320 358 19 358 359 2 2 349 10 22 6 17 15 293 289 304 295 286 268 250 267 298 325 26 53 30 23 47 22 84 83 316 272 207 228 242 242 261 281 321 273 269 282 292 298 343 109 127 171 233 174 75 291 248 101 359 253 220 346 319 316 343 332 333 335 335 336 336 333 333 335 337
71 95 75 68 37 25 42 25 26 54 69 76 110 31 2 356 356 7 319 312 351 19 32 6 4 17 253 254 34 285 301 333 327 275 281 297 302 335 349 23 70 31 29 46 355 108 115 263 257 203 266 265 252 265 273 268 266 274 321 308 305 265 182 181 228 230 150 219 270 266 358 315 274 184 325 307 323 330 324 326 328 329 333 334 331 332 335 337
87 111 92 78 90 121 74 357 1 55 54 42 64 46 31 32 6 301 249 341 350 1 36 354 295 315 290 240 161 230 284 326 315 288 262 296 304 334 338 324 44 15 12 19 339 101 122 262 246 197 294 289 278 277 263 221 270 23 41 354 346 190 185 200 264 248 190 250 270 311 321 298 261 179 290 309 322 323 328 330 330 332 333 332 333 336 337 336
89 101 106 105 91 60 39 2 15 75 44 25 51 37 46 109 330 297 274 56 340 318 19 329 277 289 283 224 172 216 232 200 230 256 213 207 301 274 245 250 242 347 0 37 345 35 112 274 280 82 329 298 299 325 338 246 199 74 41 10 16 36 69 55 350 14 353 286 296 323 313 293 246 14 328 328 331 333 335 334 332 332 330 329 335 339 337 336
72 75 98 115 82 18 13 10 44 86 41 11 36 351 344 50 280 286 276 184 219 260 280 267 278 294 315 283 201 237 256 226 231 255 247 239 256 234 238 247 207 347 346 5 319 4 87 290 346 52 5 289 303 356 330 318 60 87 29 0 8 25 32 332 270 283 281 286 303 315 303 276 288 343 334 328 333 334 333 332 329 326 328 337 341 340 340 338
61 69 86 111 84 14 15 7 26 61 53 331 2 312 303 312 311 335 340 277 233 234 286 273 255 288 333 321 266 268 294 291 276 281 281 267 261 262 268 268 260 265 262 173 303 316 102 99 353 38 337 277 297 334 321 332 31 34 314 320 311 40 11 320 299 290 248 232 274 287 278 275 312 329 324 321 332 333 331 331 326 323 337 349 343 342 342 337
Height
1548 1548 1548 1548 1548 1548 1548 1548 1548 1548 1548 1548 1547 1547 1547 1546 1546 1546 1545 1545 1544 1544 1543 1543 1543 1542 1542 1541 1541 1540 1540 1539 1538 1538 1537 1536 1536 1535 1535 1534 1534 1534 1534 1533 1533 1533 1532 1532 1532 1531 1531 1531 1532 1532 1533 1533 1533 1533 1536 1538 1538 1540 1539 1537 1538 1538 1537 1536 1536 1535 1536 1537 1537 1537 1537 1537 1537 1537 1538 1538 1538 1538 1538 1538 1538 1538 1538 1538
1548 1549 1549 1549 1549 1549 1549 1549 1549 1548 1548 1548 1548 1547 1547 1547 1546 1546 1546 1545 1545 1544 1543 1543 1543 1542 1542 1541 1541 1540 1539 1539 1538 1537 1537 1536 1535 1534 1534 1534 1534 1533 1533 1533 1532 1532 1532 1532 1531 1531 1531 1531 1532 1532 1532 1532 1532 1533 1537 1538 1537 1538 1537 1536 1536 1536 1536 1535 1534 1535 1535 1536 1536 1536 1537 1537 1536 1536 1537 1536 1537 1537 1536 1536 1537 1537 1537 1537
1549 1549 1549 1550 1550 1550 1550 1549 1549 1549 1548 1548 1548 1548 1547 1547 1547 1546 1546 1545 1545 1544 1543 1543 1542 1542 1541 1540 1540 1540 1539 1538 1538 1537 1536 1535 1534 1534 1533 1533 1533 1533 1532 1532 1532 1531 1531 1531 1531 1531 1531 1531 1531 1532 1531 1532 1532 1532 1535 1536 1536 1536 1536 1535 1535 1535 1535 1534 1534 1535 1535 1535 1535 1536 1536 1536 1535 1535 1534 1534 1534 1534 1534 1534 1535 1535 1536 1536
1550 1550 1550 1550 1550 1550 1550 1550 1550 1549 1549 1548 1548 1548 1547 1547 1547 1546 1546 1545 1545 1544 1543 1543 1542 1541 1541 1540 1539 1539 1538 1538 1537 1536 1536 1535 1534 1533 1532 1532 1532 1532 1532 1532 1531 1531 1531 1531 1531 1530 1530 1531 1531 1531 1531 1531 1531 1532 1533 1534 1534 1535 1535 1534 1534 1534 1534 1534 1534 1534 1535 1535 1535 1535 1535 1535 1536 1534 1531 1531 1531 1531 1532 1533 1534 1534 1535 1535
1551 1551 1551 1551 1551 1551 1551 1550 1550 1549 1549 1548 1548 1547 1547 1547 1547 1546 1546 1545 1544 1544 1543 1542 1542 1541 1540 1539 1538 1538 1538 1538 1537 1536 1535 1534 1534 1533 1532 1532 1531 1531 1531 1531 1531 1531 1531 1530 1530 1530 1530 1530 1530 1530 1531 1532 1531 1532 1533 1533 1533 1534 1534 1533 1534 1534 1534 1534 1533 1534 1535 1534 1534 1534 1533 1534 1534 1531 1528 1529 1529 1530 1531 1532 1532 1532 1533 1533
1551 1552 1551 1551 1551 1551 1551 1550 1550 1549 1549 1548 1548 1547 1547 1546 1546 1546 1545 1545 1544 1543 1543 1542 1541 1541 1540 1539 1539 1538 1538 1538 1536 1535 1535 1534 1533 1533 1532 1531 1531 1531 1531 1531 1531 1531 1531 1530 1530 1530 1530 1530 1531 1531 1531 1532 1531 1532 1533 1533 1533 1533 1533 1532 1533 1533 1533 1533 1533 1534 1534 1534 1534 1533 1532 1532 1530 1527 1527 1528 1528 1529 1530 1530 1530 1530 1531 1532
1552 1552 1552 1552 1551 1551 1551 1550 1550 1549 1549 1548 1548 1547 1546 1546 1546 1545 1545 1544 1544 1543 1542 1542 1541 1540 1539 1539 1538 1538 1538 1537 1536 1535 1535 1534 1533 1533 1532 1531 1531 1531 1531 1531 1530 1531 1530 1530 1530 1529 1530 1531 1531 1531 1531 1531 1531 1531 1532 1532 1532 1532 1532 1532 1533 1533 1533 1533 1533 1533 1533 1533 1533 1532 1532 1529 1525 1525 1527 1528 1528 1528 1528 1529 1529 1529 1529 1530
1553 1552 1552 1552 1552 1551 1551 1550 1550 1549 1548 1548 1547 1547 1546 1546 1545 1545 1545 1544 1543 1543 1542 1541 1541 1540 1539 1539 1538 1538 1537 1536 1536 1535 1534 1534 1533 1533 1532 1531 1531 1531 1531 1530 1530 1530 1530 1530 1529 1529 1530 1530 1530 1531 1531 1531 1531 1531 1531 1532 1532 1532 1532 1532 1532 1532 1533 1533 1533 1533 1532 1532 1532 1533 1531 1525 1522 1524 1525 1526 1526 1527 1527 1527 1527 1528 1529 1530
1553 1553 1552 1552 1552 1551 1551 1550 1549 1549 1548 1547 1547 1546 1546 1546 1545 1545 1545 1544 1543 1543 1542 1541 1540 1540 1539 1539 1538 1538 1537 1536 1536 1535 1534 1534 1533 1533 1532 1531 1531 1531 1530 1530 1530 1530 1530 1529 1529 1529 1529 1529 1530 1530 1531 1531 1531 1531 1531 1531 1531 1531 1532 1532 1532 1532 1532 1532 1533 1532 1532 1532 1532 1532 1528 1522 1521 1523 1523 1524 1524 1525 1525 1525 1526 1527 1528 1529
1553 1553 1552 1552 1552 1551 1550 1550 1549 1548 1548 1547 1547 1546 1546 1545 1545 1545 1544 1544 1543 1542 1542 1541 1540 1540 1539 1539 1539 1538 1536 1536 1535 1535 1534 1534 1533 1533 1532 1531 1531 1530 1530 1530 1529 1529 1529 1529 1529 1529 1528 1528 1529 1530 1531 1530 1530 1530 1531 1531 1531 1531 1531 1531 1531 1531 1532 1532 1532 1532 1532 1531 1532 1533 1527 1521 1522 1522 1522 1523 1523 1524 1524 1525 1526 1527 1528 1529
1553 1553 1552 1552 1551 1551 1550 1550 1549 1548 1548 1547 1547 1546 1546 1545 1545 1544 1544 1543 1543 1542 1541 1541 1540 1540 1539 1539 1539 1538 1536 1535 1535 1534 1534 1534 1534 1533 1532 1531 1531 1530 1530 1529 1529 1529 1529 1529 1529 1528 1528 1528 1529 1530 1530 1530 1530 1530 1530 1531 1531 1531 1531 1531 1531 1531 1531 1531 1531 1531 1532 1531 1532 1531 1525 1521 1522 1522 1522 1523 1523 1524 1524 1525 1526 1527 1528 1529
1553 1552 1552 1552 1551 1551 1550 1550 1549 1548 1548 1547 1546 1546 1545 1545 1544 1544 1543 1543 1542 1542 1541 1541 1540 1539 1539 1538 1538 1537 1536 1535 1535 1534 1534 1534 1533 1533 1532 1531 1530 1530 1529 1529 1529 1529 1529 1528 1528 1528 1527 1528 1529 1530 1530 1530 1530 1530 1531 1531 1531 1532 1530 1529 1530 1530 1530 1531 1530 1531 1529 1529 1531 1527 1521 1521 1521 1521 1522 1522 1523 1523 1524 1525 1526 1527 1528 1529
1553 1552 1552 1552 1551 1551 1550 1549 1549 1548 1547 1547 1546 1545 1545 1544 1544 1543 1543 1543 1542 1542 1541 1540 1540 1539 1538 1538 1537 1536 1536 1535 1534 1534 1533 1533 1533 1532 1532 1531 1530 1530 1529 1529 1529 1529 1528 1528 1527 1527 1527 1527 1528 1529 1529 1530 1530 1531 1532 1532 1532 1532 1529 1527 1529 1530 1530 1530 1530 1531 1528 1524 1525 1523 1519 1521 1521 1520 1521 1522 1522 1523 1524 1525 1527 1528 1529 1529
1553 1552 1552 1552 1551 1551 1550 1549 1549 1548 1547 1546 1546 1545 1544 1544 1543 1543 1542 1542 1542 1541 1540 1540 1539 1539 1538 1537 1536 1536 1535 1535 1534 1533 1533 1533 1533 1532 1531 1531 1530 1530 1529 1529 1529 1528 1528 1528 1527 1527 1527 1528 1528 1529 1530 1532 1531 1533 1533 1534 1537 1534 1527 1527 1530 1529 1530 1530 1529 1532 1531 1523 1521 1521 1519 1520 1520 1520 1521 1521 1522 1522 1523 1526 1527 1529 1529 1530
1553 1552 1552 1552 1551 1551 1550 1549 1548 1548 1547 1546 1546 1545 1544 1544 1543 1542 1542 1542 1541 1541 1540 1539 1539 1538 1538 1536 1536 1535 1535 1534 1534 1533 1532 1532 1532 1531 1531 1530 1530 1530 1529 1529 1528 1528 1528 1528 1527 1527 1528 1527 1528 1529 1532 1533 1533 1535 1533 1533 1540 1537 1528 1528 1529 1529 1529 1530 1530 1531 1531 1524 1520 1520 1520 1520 1520 1519 1520 1521 1521 1522 1523 1526 1527 1529 1530 1531
1553 1553 1552 1552 1551 1550 1550 1549 1548 1548 1547 1546 1545 1544 1544 1543 1543 1542 1542 1541 1540 1540 1539 1538 1538 1538 1537 1536 1535 1535 1534 1534 1533 1533 1532 1531 1531 1531 1530 1530 1529 1529 1529 1529 1528 1528 1528 1528 1528 1527 1528 1528 1529 1531 1533 1534 1534 1537 1536 1532 1536 1536 1532 1529 1528 1529 1529 1529 1530 1530 1529 1524 1519 1519 1519 1520 1519 1519 1520 1520 1521 1522 1524 1526 1527 1529 1530 1531
1553 1553 1552 1552 1551 1550 1550 1549 1548 1547 1547 1546 1545 1544 1543 1542 1542 1542 1541 1541 1540 1538 1538 1538 1537 1537 1536 1535 1535 1534 1534 1533 1533 1532 1531 1531 1531 1530 1529 1529 1529 1529 1528 1528 1528 1528 1528 1528 1528 1528 1528 1529 1531 1532 1533 1534 1531 1535 1538 1535 1533 1535 1534 1530 1527 1529 1530 1530 1530 1530 1530 1524 1519 1521 1520 1518 1518 1518 1519 1520 1521 1523 1525 1526 1528 1529 1530 1532
1553 1553 1552 1552 1551 1550 1549 1549 1548 1547 1546 1545 1544 1544 1543 1542 1541 1541 1541 1540 1539 1538 1537 1537 1537 1537 1536 1534 1534 1534 1533 1533 1532 1532 1531 1531 1530 1529 1529 1528 1528 1528 1528 1528 1527 1527 1527 1527 1528 1528 1529 1530 1532 1532 1531 1531 1529 1529 1533 1533 1532 1533 1533 1530 1527 1528 1529 1530 1530 1531 1531 1524 1521 1523 1521 1519 1518 1518 1520 1521 1522 1525 1526 1527 1528 1530 1532 1533
1554 1553 1553 1552 1551 1550 1549 1549 1548 1547 1546 1545 1544 1543 1542 1541 1540 1540 1540 1539 1538 1537 1537 1537 1537 1537 1536 1534 1534 1534 1532 1532 1531 1531 1531 1530 1530 1529 1528 1528 1527 1527 1527 1527 1527 1527 1527 1528 1529 1529 1528 1528 1529 1530 1528 1528 1529 1529 1530 1531 1530 1530 1530 1529 1528 1529 1529 1530 1529 1529 1528 1523 1523 1525 1523 1521 1521 1520 1521 1523 1525 1526 1528 1528 1530 1531 1533 1534
1554 1553 1553 1552 1551 1550 1549 1549 1548 1547 1546 1545 1544 1542 1542 1541 1540 1539 1539 1538 1538 1538 1538 1537 1536 1536 1535 1534 1534 1533 1532 1532 1531 1531 1531 1530 1529 1528 1528 1527 1527 1527 1527 1527 1527 1527 1527 1528 1529 1527 1526 1527 1529 1530 1530 1530 1532 1531 1532 1532 1531 1532 1530 1527 1528 1529 1530 1528 1526 1528 1527 1524 1525 1526 1524 1523 1523 1523 1523 1524 1527 1528 1529 1530 1531 1533 1534 1535
1554 1554 1553 1553 1552 1551 1550 1549 1548 1547 1546 1545 1544 1543 1542 1542 1541 1540 1539 1538 1538 1538 1537 1537 1536 1536 1535 1535 1534 1533 1532 1531 1531 1531 1530 1529 1529 1528 1527 1527 1527 1527 1527 1528 1527 1527 1528 1528 1528 1528 1528 1530 1531 1532 1532 1532 1533 1532 1532 1532 1533 1534 1531 1527 1529 1530 1530 1528 1525 1528 1527 1525 1528 1526 1523 1524 1525 1526 1525 1526 1527 1529 1530 1532 1532 1534 1535 1536
1554 1554 1554 1553 1552 1551 1550 1549 1548 1547 1546 1545 1544 1543 1543 1542 1542 1541 1540 1539 1537 1537 1537 1537 1536 1536 1535 1535 1534 1533 1533 1532 1531 1530 1530 1529 1528 1528 1527 1527 1528 1528 1528 1528 1528 1529 1529 1527 1528 1530 1532 1532 1532 1533 1532 1532 1533 1533 1534 1534 1532 1533 1531 1528 1530 1530 1530 1528 1525 1526 1526 1526 1530 1528 1524 1525 1526 1528 1528 1528 1529 1529 1531 1533 1534 1535 1536 1537
1555 1554 1554 1553 1552 1551 1550 1550 1549 1548 1547 1545 1544 1543 1543 1542 1542 1541 1541 1539 1538 1537 1537 1537 1536 1536 1535 1535 1534 1534 1533 1532 1531 1530 1530 1529 1528 1528 1527 1527 1528 1528 1528 1528 1528 1530 1528 1527 1530 1532 1532 1532 1532 1533 1533 1532 1533 1532 1533 1533 1530 1531 1532 1526 1527 1530 1530 1528 1526 1526 1528 1530 1531 1529 1528 1529 1528 1530 1531 1531 1531 1532 1532 1533 1535 1536 1537 1538
1555 1554 1554 1553 1552 1551 1550 1550 1549 1548 1546 1545 1544 1543 1543 1542 1542 1541 1540 1539 1538 1537 1537 1537 1537 1536 1536 1535 1534 1534 1533 1533 1532 1531 1530 1529 1528 1528 1528 1528 1528 1528 1528 1529 1529 1529 1527 1529 1532 1532 1532 1532 1532 1533 1534 1532 1532 1532 1532 1531 1528 1529 1530 1528 1530 1530 1528 1528 1528 1526 1526 1530 1533 1533 1533 1534 1532 1532 1533 1532 1533 1534 1535 1535 1536 1537 1538 1538
1554 1554 1553 1553 1552 1551 1550 1550 1548 1547 1546 1545 1544 1544 1543 1543 1542 1541 1540 1540 1539 1538 1538 1537 1537 1536 1536 1535 1534 1534 1533 1532 1532 1531 1531 1530 1529 1529 1528 1529 1528 1528 1529 1530 1530 1528 1528 1531 1532 1531 1532 1533 1532 1532 1533 1532 1531 1531 1529 1529 1529 1529 1529 1531 1531 1530 1526 1525 1527 1526 1523 1528 1536 1537 1536 1536 1536 1536 1536 1535 1535 1536 1537 1537 1537 1538 1539 1539
1554 1554 1553 1553 1552 1551 1551 1550 1548 1547 1546 1545 1544 1543 1543 1542 1542 1541 1541 1542 1541 1539 1538 1538 1537 1537 1536 1535 1534 1533 1532 1532 1532 1532 1531 1530 1529 1529 1529 1529 1529 1529 1529 1530 1529 1529 1530 1532 1532 1532 1532 1534 1533 1531 1532 1533 1532 1529 1528 1530 1532 1531 1531 1531 1531 1530 1527 1525 1527 1529 1525 1529 1536 1537 1536 1538 1537 1538 1538 1537 1537 1538 1538 1538 1538 1539 1539 1539
1554 1554 1553 1553 1552 1551 1550 1549 1548 1547 1546 1545 1544 1543 1543 1542 1542 1541 1540 1544 1545 1541 1539 1538 1537 1537 1536 1535 1534 1533 1533 1533 1532 1532 1531 1530 1529 1529 1529 1529 1529 1529 1530 1530 1528 1529 1531 1532 1532 1534 1533 1533 1532 1529 1532 1534 1531 1528 1530 1532 1532 1532 1532 1532 1532 1532 1531 1529 1528 1529 1528 1528 1532 1533 1535 1538 1539 1539 1540 1539 1539 1539 1539 1539 1538 1538 1538 1538
1555 1554 1553 1553 1552 1551 1550 1549 1548 1547 1546 1545 1543 1543 1542 1541 1542 1541 1541 1548 1549 1541 1540 1539 1537 1537 1537 1535 1534 1534 1534 1533 1532 1532 1531 1530 1530 1529 1529 1529 1530 1530 1530 1530 1528 1529 1532 1531 1532 1533 1533 1532 1530 1530 1533 1533 1530 1529 1532 1534 1532 1533 1533 1533 1534 1533 1535 1534 1525 1525 1529 1526 1525 1532 1536 1538 1539 1539 1539 1540 1540 1540 1539 1539 1538 1538 1538 1538
1555 1554 1553 1552 1551 1551 1550 1549 1548 1547 1545 1544 1543 1542 1541 1540 1541 1540 1542 1549 1547 1541 1541 1539 1537 1538 1536 1535 1535 1534 1534 1534 1533 1532 1531 1531 1530 1529 1529 1529 1530 1530 1530 1531 1529 1529 1532 1532 1532 1532 1532 1531 1530 1532 1533 1532 1530 1530 1533 1534 1533 1535 1535 1534 1535 1533 1536 1532 1520 1520 1527 1521 1521 1534 1539 1537 1538 1538 1538 1540 1541 1540 1539 1538 1538 1538 1537 1537
1554 1554 1553 1552 1551 1550 1549 1548 1547 1546 1545 1544 1542 1541 1541 1540 1541 1543 1548 1549 1544 1541 1541 1538 1538 1539 1538 1536 1535 1535 1535 1534 1534 1533 1531 1531 1530 1529 1530 1529 1530 1530 1531 1531 1530 1530 1532 1532 1533 1533 1532 1532 1532 1532 1533 1532 1531 1531 1532 1531 1530 1534 1535 1535 1537 1536 1533 1526 1519 1523 1527 1522 1520 1528 1533 1531 1531 1532 1534 1539 1541 1540 1539 1539 1538 1538 1538 1537
1554 1553 1552 1551 1551 1550 1548 1548 1546 1545 1544 1543 1542 1541 1540 1541 1541 1546 1551 1548 1543 1542 1540 1539 1541 1541 1541 1542 1539 1537 1536 1535 1535 1534 1532 1532 1532 1531 1529 1530 1530 1529 1528 1529 1529 1531 1533 1532 1532 1534 1533 1533 1533 1532 1532 1533 1532 1531 1531 1529 1527 1528 1531 1533 1535 1535 1528 1520 1520 1525 1529 1525 1519 1520 1526 1528 1527 1530 1532 1536 1539 1539 1539 1540 1539 1539 1538 1538
1554 1553 1552 1551 1550 1549 1548 1547 1545 1545 1543 1542 1542 1540 1540 1543 1544 1548 1550 1545 1544 1545 1543 1544 1544 1543 1544 1545 1542 1541 1540 1537 1536 1536 1536 1537 1538 1538 1537 1538 1537 1531 1529 1534 1533 1529 1530 1533 1535 1534 1533 1534 1532 1529 1530 1532 1532 1531 1530 1531 1528 1526 1528 1526 1526 1530 1526 1519 1521 1526 1526 1524 1520 1522 1528 1529 1529 1532 1533 1535 1537 1539 1539 1540 1540 1539 1539 1539
1553 1552 1551 1550 1550 1548 1547 1546 1545 1544 1543 1541 1541 1540 1541 1546 1549 1552 1551 1546 1546 1548 1547 1547 1546 1546 1546 1543 1543 1544 1542 1539 1538 1537 1539 1539 1540 1543 1544 1545 1545 1538 1535 1540 1539 1532 1529 1532 1534 1533 1532 1533 1532 1529 1528 1529 1530 1530 1530 1531 1529 1530 1532 1528 1526 1530 1525 1518 1523 1528 1526 1520 1519 1527 1532 1531 1532 1534 1535 1537 1538 1539 1540 1540 1540 1540 1539 1540
1552 1551 1551 1550 1549 1547 1546 1545 1544 1543 1542 1541 1540 1540 1544 1549 1552 1554 1552 1550 1551 1550 1549 1550 1548 1547 1546 1544 1545 1546 1542 1540 1540 1539 1538 1539 1540 1543 1544 1544 1545 1543 1540 1540 1540 1539 1535 1529 1529 1531 1531 1532 1533 1532 1532 1531 1531 1532 1533 1534 1530 1529 1532 1530 1527 1527 1524 1523 1527 1526 1524 1520 1522 1532 1537 1535 1536 1536 1537 1539 1539 1540 1541 1540 1540 1540 1540 1540
1551 1551 1550 1549 1548 1547 1546 1545 1544 1543 1542 1541 1541 1544 1549 1553 1554 1555 1554 1554 1554 1553 1550 1551 1549 1546 1544 1546 1548 1548 1544 1541 1542 1541 1540 1541 1544 1545 1546 1546 1546 1546 1542 1539 1540 1543 1540 1531 1530 1533 1533 1533 1534 1533 1535 1534 1531 1534 1536 1535 1531 1529 1531 1531 1531 1532 1533 1535 1531 1524 1526 1531 1533 1538 1540 1538 1538 1539 1540 1540 1541 1541 1541 1541 1541 1541 1541 1540
1551 1550 1550 1549 1548 1547 1546 1545 1543 1542 1542 1541 1543 1548 1554 1556 1556 1557 1557 1557 1557 1556 1552 1549 1548 1546 1545 1546 1546 1548 1547 1544 1543 1542 1542 1546 1548 1548 1549 1549 1549 1548 1545 1543 1543 1543 1540 1532 1531 1534 1533 1534 1535 1534 1536 1534 1530 1534 1534 1532 1534 1535 1533 1532 1534 1539 1540 1538 1530 1523 1529 1538 1539 1539 1542 1542 1540 1541 1542 1541 1541 1542 1541 1541 1541 1541 1541 1541
1550 1550 1549 1548 1547 1546 1545 1544 1543 1542 1542 1541 1545 1552 1558 1559 1558 1559 1559 1558 1558 1558 1555 1549 1548 1548 1549 1548 1546 1547 1547 1544 1544 1544 1543 1547 1547 1548 1549 1549 1550 1550 1548 1547 1545 1545 1545 1536 1531 1534 1533 1533 1536 1535 1535 1536 1534 1533 1533 1533 1535 1536 1536 1537 1537 1536 1537 1537 1529 1524 1529 1535 1535 1536 1541 1543 1542 1543 1543 1542 1542 1542 1541 1541 1542 1542 1541 1540
1550 1549 1549 1548 1547 1546 1545 1544 1543 1543 1542 1544 1550 1556 1559 1559 1559 1560 1559 1559 1558 1558 1556 1552 1550 1551 1553 1552 1549 1549 1548 1544 1545 1546 1545 1546 1546 1547 1550 1549 1549 1550 1550 1549 1546 1547 1549 1540 1533 1535 1536 1534 1537 1535 1533 1535 1537 1535 1534 1536 1536 1534 1533 1537 1539 1535 1536 1538 1532 1528 1530 1531 1531 1534 1539 1542 1543 1544 1544 1542 1542 1542 1542 1542 1542 1541 1540 1539
1549 1549 1549 1548 1547 1546 1545 1544 1544 1542 1542 1548 1554 1557 1559 1560 1560 1560 1559 1559 1559 1557 1556 1556 1555 1553 1553 1554 1553 1552 1551 1548 1548 1548 1546 1546 1546 1548 1550 1550 1550 1550 1550 1549 1548 1548 1549 1545 1536 1535 1537 1536 1534 1534 1531 1532 1535 1536 1536 1537 1537 1537 1535 1536 1538 1537 1537 1538 1535 1532 1526 1525 1533 1539 1539 1542 1544 1544 1544 1543 1543 1542 1542 1542 1541 1541 1540 1539
1549 1548 1549 1548 1547 1546 1545 1544 1544 1543 1546 1553 1557 1558 1559 1560 1560 1560 1560 1559 1559 1558 1557 1558 1558 1555 1555 1555 1555 1554 1553 1551 1551 1549 1548 1548 1547 1547 1551 1553 1551 1550 1550 1549 1550 1549 1548 1548 1540 1533 1536 1535 1531 1533 1532 1532 1534 1534 1534 1535 1535 1536 1537 1537 1538 1539 1538 1535 1536 1536 1526 1527 1540 1543 1539 1542 1544 1544 1544 1543 1543 1543 1542 1542 1542 1541 1540 1538
1549 1549 1549 1548 1547 1546 1545 1545 1546 1548 1552 1557 1559 1559 1561 1561 1560 1560 1560 1559 1559 1559 1558 1559 1558 1557 1557 1556 1555 1556 1554 1552 1552 1550 1549 1549 1548 1547 1551 1554 1552 1552 1550 1548 1550 1550 1548 1548 1545 1539 1536 1532 1529 1534 1536 1535 1536 1535 1533 1533 1534 1536 1536 1537 1539 1542 1542 1536 1537 1538 1530 1531 1543 1543 1541 1544 1544 1543 1544 1543 1543 1544 1543 1543 1542 1541 1539 1538
1549 1550 1550 1549 1547 1547 1545 1547 1551 1553 1555 1557 1559 1561 1561 1561 1561 1560 1559 1559 1559 1559 1559 1559 1558 1558 1558 1557 1556 1557 1555 1553 1552 1551 1550 1550 1550 1550 1552 1554 1553 1553 1551 1549 1551 1552 1550 1552 1550 1544 1537 1533 1532 1536 1537 1536 1537 1537 1536 1535 1537 1537 1536 1536 1537 1539 1541 1539 1540 1542 1536 1536 1545 1544 1542 1544 1543 1543 1544 1543 1544 1544 1543 1543 1541 1540 1538 1536
1549 1551 1551 1549 1548 1547 1546 1549 1554 1556 1558 1560 1561 1561 1561 1561 1561 1560 1560 1560 1559 1559 1558 1558 1559 1558 1558 1558 1558 1557 1556 1553 1552 1551 1551 1551 1552 1552 1553 1553 1553 1553 1552 1551 1551 1551 1550 1551 1549 1542 1536 1533 1534 1536 1537 1537 1536 1536 1536 1537 1538 1537 1536 1537 1539 1540 1541 1538 1538 1540 1536 1537 1545 1545 1543 1544 1543 1544 1544 1544 1545 1544 1542 1542 1540 1538 1537 1535
1551 1551 1551 1550 1548 1547 1547 1552 1555 1557 1560 1561 1561 1561 1561 1561 1561 1560 1560 1560 1559 1560 1559 1559 1560 1559 1559 1560 1559 1558 1557 1554 1552 1552 1552 1552 1552 1552 1553 1552 1552 1552 1551 1550 1550 1550 1548 1547 1548 1544 1538 1534 1533 1534 1534 1535 1535 1534 1536 1539 1540 1539 1540 1541 1543 1545 1543 1538 1539 1539 1532 1535 1544 1545 1543 1544 1544 1544 1545 1545 1544 1543 1542 1540 1538 1537 1535 1533
1551 1551 1551 1551 1550 1548 1550 1554 1556 1557 1560 1561 1560 1561 1561 1561 1561 1561 1561 1561 1561 1561 1561 1561 1561 1560 1561 1560 1559 1558 1558 1556 1553 1553 1553 1552 1551 1552 1553 1552 1552 1552 1552 1552 1552 1551 1549 1549 1548 1546 1544 1541 1538 1536 1535 1535 1537 1536 1537 1540 1540 1540 1540 1539 1541 1542 1541 1541 1544 1538 1530 1536 1546 1545 1543 1545 1545 1545 1545 1544 1543 1542 1540 1538 1536 1534 1532 1530
1551 1552 1552 1552 1551 1551 1553 1556 1556 1557 1559 1560 1560 1562 1562 1561 1562 1562 1562 1562 1562 1562 1562 1561 1561 1560 1560 1560 1558 1557 1557 1556 1555 1553 1553 1551 1550 1552 1553 1552 1553 1553 1552 1553 1553 1552 1553 1552 1549 1546 1545 1543 1540 1538 1538 1540 1541 1538 1537 1538 1539 1541 1542 1540 1540 1540 1540 1543 1543 1535 1533 1539 1543 1544 1545 1546 1545 1545 1544 1543 1541 1539 1537 1536 1534 1532 1530 1528
1552 1554 1556 1555 1553 1554 1555 1557 1557 1557 1559 1559 1560 1562 1563 1562 1562 1562 1562 1562 1562 1562 1562 1561 1561 1560 1559 1560 1560 1558 1556 1557 1555 1554 1554 1553 1552 1553 1553 1553 1553 1552 1553 1553 1552 1553 1553 1550 1550 1549 1545 1542 1542 1540 1539 1542 1543 1540 1539 1538 1538 1542 1542 1539 1538 1537 1540 1543 1540 1537 1540 1541 1539 1543 1547 1545 1544 1544 1542 1540 1539 1537 1535 1533 1531 1530 1528 1526
1553 1556 1558 1557 1556 1557 1558 1558 1559 1560 1560 1560 1562 1564 1563 1563 1563 1562 1562 1562 1562 1561 1561 1560 1561 1561 1561 1561 1560 1558 1556 1555 1554 1553 1554 1555 1554 1553 1551 1552 1553 1552 1553 1553 1552 1553 1553 1549 1551 1552 1545 1542 1544 1541 1539 1543 1543 1541 1542 1542 1540 1541 1541 1537 1538 1540 1543 1543 1537 1538 1544 1542 1540 1544 1546 1543 1543 1542 1540 1539 1537 1535 1533 1531 1529 1527 1525 1523
1555 1556 1558 1558 1558 1560 1561 1560 1561 1561 1561 1561 1562 1564 1564 1563 1563 1563 1563 1562 1561 1562 1561 1559 1560 1561 1562 1562 1561 1559 1557 1554 1553 1553 1554 1555 1555 1554 1551 1551 1552 1553 1553 1553 1553 1554 1552 1550 1552 1553 1547 1541 1540 1539 1540 1542 1541 1541 1546 1548 1545 1543 1542 1542 1542 1545 1546 1543 1539 1541 1544 1542 1541 1544 1544 1542 1542 1540 1538 1537 1534 1532 1530 1528 1527 1525 1522 1521
1556 1556 1557 1558 1559 1561 1561 1561 1561 1560 1561 1562 1562 1563 1565 1564 1563 1564 1564 1563 1561 1562 1562 1560 1560 1561 1561 1561 1560 1558 1556 1555 1555 1555 1555 1556 1556 1555 1554 1552 1552 1554 1553 1553 1554 1554 1552 1551 1553 1554 1548 1539 1536 1538 1538 1539 1540 1542 1546 1549 1546 1543 1544 1546 1545 1546 1546 1543 1542 1545 1544 1540 1540 1543 1542 1541 1540 1538 1536 1534 1532 1530 1528 1526 1524 1523 1521 1519
1556 1557 1557 1558 1560 1562 1561 1561 1562 1561 1562 1563 1563 1564 1565 1565 1565 1564 1564 1564 1562 1562 1562 1562 1561 1561 1560 1560 1559 1557 1556 1556 1556 1555 1555 1556 1556 1555 1555 1554 1554 1555 1554 1554 1555 1553 1553 1553 1552 1553 1548 1539 1537 1538 1536 1537 1541 1542 1544 1548 1548 1545 1545 1546 1546 1546 1547 1546 1545 1546 1542 1539 1540 1541 1540 1539 1538 1537 1535 1533 1531 1529 1527 1525 1523 1521 1520 1517
1557 1557 1557 1557 1560 1563 1563 1562 1563 1561 1562 1565 1566 1565 1565 1564 1565 1564 1562 1562 1563 1562 1562 1561 1561 1561 1559 1557 1557 1556 1556 1556 1555 1555 1555 1555 1555 1555 1555 1554 1555 1555 1554 1555 1555 1555 1556 1554 1552 1554 1550 1540 1537 1539 1539 1536 1532 1532 1542 1550 1549 1548 1548 1547 1547 1546 1546 1547 1546 1542 1539 1539 1541 1540 1539 1538 1537 1536 1534 1532 1530 1527 1525 1524 1522 1520 1518 1515